IRNSS-1D

Last updated on Wed Nov 20 2024 00:02:41 GMT+0000 (Coordinated Universal Time)

1 40547U 15018A 24323.72653528 -.00000287 00000+0 00000+0 0 9993 2 40547 27.1821 250.0229 0018375 184.6266 357.0949 1.00277180 35214
UTC large
Height (km)
Speed (km/s)
/
Latitude / Longitude
Inclination (degrees)
Orbital Period (minutes)
Azimuth
Elevation
Range (km)
Doppler Factor

Next 0 passes for location: London (51.5072 / 0.1276)

Sorry there are no passes over London.